TimeEDT,TemperatureF,Dew PointF,Humidity,Sea Level PressureIn,VisibilityMPH,Wind Direction,Wind SpeedMPH,Gust SpeedMPH,PrecipitationIn,Events,Conditions,WindDirDegrees,DateUTC
12:16 AM,44.6,42.8,93,29.77,10.0,NNW,3.5,-,N/A,,Overcast,330,2012-10-14 04:16:00
12:36 AM,44.6,42.1,91,29.77,7.0,North,3.5,-,N/A,,Overcast,350,2012-10-14 04:36:00
12:55 AM,44.6,42.8,93,29.78,10.0,NW,3.5,-,N/A,,Overcast,320,2012-10-14 04:55:00
1:16 AM,44.6,42.1,91,29.79,10.0,NW,4.6,-,N/A,,Overcast,320,2012-10-14 05:16:00
1:36 AM,44.4,41.9,91,29.78,10.0,Calm,Calm,-,N/A,,Overcast,0,2012-10-14 05:36:00
1:56 AM,44.4,41.9,91,29.78,3.0,North,8.1,-,N/A,,Overcast,350,2012-10-14 05:56:00
2:16 AM,44.2,41.9,91,29.77,3.0,North,6.9,-,N/A,,Overcast,360,2012-10-14 06:16:00
2:36 AM,44.2,41.9,91,29.76,5.0,North,4.6,-,N/A,,Overcast,350,2012-10-14 06:36:00
2:56 AM,44.6,42.1,91,29.77,10.0,North,4.6,-,N/A,,Overcast,350,2012-10-14 06:56:00
3:16 AM,44.6,41.9,90,29.78,10.0,North,6.9,-,N/A,,Overcast,350,2012-10-14 07:16:00
3:35 AM,44.2,41.5,90,29.77,10.0,North,6.9,-,N/A,,Overcast,360,2012-10-14 07:35:00
3:56 AM,44.2,41.4,90,29.77,10.0,North,8.1,-,N/A,,Overcast,350,2012-10-14 07:56:00
4:16 AM,43.9,41.0,90,29.76,10.0,North,9.2,-,N/A,,Overcast,360,2012-10-14 08:16:00
4:35 AM,43.7,40.5,88,29.75,10.0,North,9.2,-,N/A,,Overcast,360,2012-10-14 08:35:00
4:56 AM,43.7,40.3,88,29.76,10.0,NNW,5.8,-,N/A,,Overcast,340,2012-10-14 08:56:00
5:16 AM,43.7,40.3,88,29.76,10.0,North,4.6,-,N/A,,Overcast,360,2012-10-14 09:16:00
5:35 AM,43.3,40.3,89,29.77,10.0,NNW,4.6,-,N/A,,Overcast,340,2012-10-14 09:35:00
5:56 AM,43.3,40.3,89,29.77,10.0,Calm,Calm,-,N/A,,Overcast,0,2012-10-14 09:56:00
6:50 AM,42.8,39.2,87,29.75,10.0,NNE,8.1,-,N/A,,Overcast,20,2012-10-14 10:50:00
7:50 AM,44.6,39.2,81,29.74,10.0,NE,8.1,-,N/A,,Overcast,40,2012-10-14 11:50:00
8:50 AM,44.6,41.0,87,29.72,10.0,NNE,10.4,-,N/A,,Overcast,30,2012-10-14 12:50:00
9:50 AM,44.6,41.0,87,29.71,10.0,NNE,6.9,-,N/A,,Overcast,20,2012-10-14 13:50:00
10:18 AM,46.4,41.0,81,29.70,10.0,NNE,8.1,-,N/A,,Overcast,20,2012-10-14 14:18:00
10:50 AM,46.4,42.8,87,29.67,7.0,NNE,12.7,-,N/A,,Overcast,30,2012-10-14 14:50:00
11:50 AM,46.4,44.6,93,29.65,7.0,NE,12.7,-,N/A,Rain,Light Rain,40,2012-10-14 15:50:00
12:50 PM,46.4,44.6,93,29.62,3.0,NE,16.1,24.2,N/A,Rain,Light Rain,40,2012-10-14 16:50:00
1:50 PM,46.4,44.6,93,29.60,6.0,NE,13.8,21.9,N/A,Rain,Light Rain,50,2012-10-14 17:50:00
2:50 PM,46.4,42.8,87,29.57,5.0,NNE,18.4,24.2,N/A,Rain,Light Rain,20,2012-10-14 18:50:00
3:50 PM,46.4,42.8,87,29.55,4.0,NE,20.7,29.9,N/A,Rain,Light Rain,40,2012-10-14 19:50:00
4:50 PM,44.6,42.8,93,29.56,4.0,North,19.6,27.6,N/A,,Light Drizzle,10,2012-10-14 20:50:00
5:50 PM,44.6,41.0,87,29.55,2.0,North,27.6,34.5,N/A,Rain,Light Rain,10,2012-10-14 21:50:00
6:50 PM,42.8,41.0,93,29.57,4.0,North,26.5,31.1,N/A,Rain,Light Rain,360,2012-10-14 22:50:00
7:55 PM,42.8,39.2,87,29.58,5.0,North,19.6,31.1,N/A,Rain,Light Rain,360,2012-10-14 23:55:00
8:55 PM,42.8,39.2,87,29.60,4.0,North,20.7,31.1,N/A,Rain,Light Rain,360,2012-10-15 00:55:00
9:55 PM,41.0,37.4,87,29.60,7.0,North,20.7,29.9,N/A,Rain,Light Rain,350,2012-10-15 01:55:00
10:16 PM,41.5,37.6,86,29.61,10.0,North,20.7,32.2,N/A,Rain,Light Rain,350,2012-10-15 02:16:00
10:36 PM,41.4,37.9,88,29.62,7.0,North,17.3,28.8,N/A,,Overcast,350,2012-10-15 02:36:00
10:56 PM,41.2,37.6,87,29.61,5.0,North,21.9,33.4,N/A,,Overcast,350,2012-10-15 02:56:00
11:16 PM,41.0,37.4,87,29.62,7.0,North,19.6,36.8,N/A,,Overcast,350,2012-10-15 03:16:00
11:35 PM,41.0,37.4,87,29.62,7.0,North,20.7,27.6,N/A,,Overcast,350,2012-10-15 03:35:00
11:56 PM,41.0,37.4,87,29.62,10.0,North,20.7,29.9,N/A,Rain,Light Rain,350,2012-10-15 03:56:00